Hourly Data Report for September 23, 2006

TORONTO CITY
ONTARIO

43°40'00.000" N
79°24'00.000" W
112.50 m
6158355
71508
XTO

Download Data

Hourly Data (September 2006)
Hourly Data Report for September 23, 2006
TIME
LST
Temp Definition
°C
Dew Point Definition
°C
Rel Hum Definition
%
Precip. Amount Definition
mm

Wind Dir Definition
10's deg

Wind Spd Definition
km/h
Visibility Definition
km
Stn Press Definition
kPa
Hmdx Definition


Wind Chill Definition


Weather Definition


00:00 17.5 15.9 90   LegendMM LegendMM   99.66     LegendNANA
01:00 17.3 16.1 93   LegendMM LegendMM   99.52     LegendNANA
02:00 16.9 16.4 97   LegendMM LegendMM   99.46     LegendNANA
03:00 16.8 16.6 99   LegendMM LegendMM   99.29     LegendNANA
04:00 17.1 16.9 99   LegendMM LegendMM   99.24     LegendNANA
05:00 17.5 17.3 99   LegendMM LegendMM   99.24     LegendNANA
06:00 17.8 17.7 99   LegendMM LegendMM   99.23     LegendNANA
07:00 18.0 17.7 98   LegendMM LegendMM   99.19     LegendNANA
08:00 18.5 18.0 97   LegendMM LegendMM   99.26     LegendNANA
09:00 19.3 18.5 95   LegendMM LegendMM   99.31     LegendNANA
10:00 19.9 18.7 93   LegendMM LegendMM   99.30     LegendNANA
11:00 21.3 19.0 87   LegendMM LegendMM   99.23 28   LegendNANA
12:00 22.4 19.7 85   LegendMM LegendMM   99.23 30   LegendNANA
13:00 22.2 18.9 82   LegendMM LegendMM   99.24 29   LegendNANA
14:00 23.0 19.5 81   LegendMM LegendMM   99.20 30   LegendNANA
15:00 23.8 18.2 71   LegendMM LegendMM   99.20 30   LegendNANA
16:00 23.8 18.5 72   LegendMM LegendMM   99.21 30   LegendNANA
17:00 22.8 18.7 78   LegendMM LegendMM   99.18 29   LegendNANA
18:00 21.8 18.9 84   LegendMM LegendMM   99.16 28   LegendNANA
19:00 20.6 18.9 90   LegendMM LegendMM   99.04 27   LegendNANA
20:00 20.5 19.3 93   LegendMM LegendMM   99.03 28   LegendNANA
21:00 19.4 18.8 96   LegendMM LegendMM   99.02     LegendNANA
22:00 17.9 17.4 97   LegendMM LegendMM   98.89     LegendNANA
23:00 19.0 18.8 99   LegendMM LegendMM   98.77     LegendNANA

Notes on Data Quality.

Legend

  • E = Estimated
  • M = Missing
  • NA = Not Available*
  • [empty] = Indicates an unobserved value
Date modified: